Bellefontaine, OH

11:37 AM EDT on June 25, 2017 (GMT -0400)
Bellefontaine

Weather History for KEDJ - January, 2014

Change the Weather History Date:

Friday, January 3, 2014

  Actual Average (KDLZ) Record (KDLZ)
Temperature  
Mean Temperature 4 °F -  
Max Temperature 12 °F 35 °F 59 °F (1939)
Min Temperature -5 °F 18 °F -4 °F (1979)
Degree Days  
Heating Degree Days 62    
Moisture  
Dew Point -2 °F    
Average Humidity 72    
Maximum Humidity 85    
Minimum Humidity 52    
Precipitation  
Precipitation 0.00 in - - ()
Sea Level Pressure  
Sea Level Pressure 30.31 in    
Wind  
Wind Speed 8 mph (SSW)    
Max Wind Speed 16 mph    
Max Gust Speed 22 mph    
Visibility 10 miles    
Events      
Averages and records for this station are not official NWS values.
T = Trace of Precipitation, MM = Missing Value Source: NWS Daily Summary

Daily Weather History Graph

Daily Weather History Graph

Search for Another Location

Airport or City:

Trip Planner

Search our weather history database for the weather conditions in past years. The results will help you decide how hot, cold, wet, or windy it might be!

Date:

Astronomy

Jan. 03, 2014 Rise Set
Actual Time 7:58 AM EST 5:21 PM EST
Civil Twilight 7:27 AM EST 5:52 PM EST
Nautical Twilight 6:53 AM EST 6:26 PM EST
Astronomical Twilight 6:20 AM EST 6:59 PM EST
Moon 9:23 AM EST (1/3) 8:30 PM EST (1/3)
Length of Visible Light 10h 24m
Length of Day
9h 23m
Waxing Crescent, 8% of the Moon is Illuminated
Jan 3
Waxing Crescent
Jan 7
First Quarter
Jan 15
Full
Jan 24
Last Quarter
Jan 30
New

Hourly Weather History & Observations

Time (EST) Temp. Windchill Dew Point Humidity Pressure Visibility Wind Dir Wind Speed Gust Speed Precip Events Conditions
12:10 AM 8.6 °F -8.3 °F 1.4 °F 73% 30.18 in 10.0 mi NNW 15.0 mph - 0.00 in   Clear
12:30 AM 6.8 °F -10.7 °F 1.4 °F 79% 30.19 in 10.0 mi NNW 15.0 mph 19.6 mph 0.00 in   Clear
12:50 AM 6.8 °F -10.7 °F 1.4 °F 79% 30.20 in 10.0 mi NNW 15.0 mph 21.9 mph 0.00 in   Clear
1:10 AM 6.8 °F -8.6 °F 1.4 °F 79% 30.21 in 10.0 mi NNW 11.5 mph - 0.00 in   Clear
1:30 AM 5.0 °F -11.6 °F -0.4 °F 78% 30.22 in 10.0 mi NNW 12.7 mph 18.4 mph 0.00 in   Clear
1:50 AM 5.0 °F -13.6 °F -0.4 °F 78% 30.23 in 10.0 mi NNW 16.1 mph 20.7 mph 0.00 in   Clear
2:10 AM 5.0 °F -11.6 °F -2.2 °F 72% 30.23 in 10.0 mi North 12.7 mph - 0.00 in   Clear
2:30 AM 3.2 °F -12.2 °F -4.0 °F 72% 30.23 in 10.0 mi North 10.4 mph - 0.00 in   Clear
2:50 AM 3.2 °F -11.3 °F -4.0 °F 72% 30.25 in 10.0 mi NNW 9.2 mph - 0.00 in   Clear
3:10 AM 1.4 °F -12.5 °F -4.0 °F 78% 30.26 in 10.0 mi NNW 8.1 mph - 0.00 in   Clear
3:30 AM 1.4 °F -9.9 °F -5.8 °F 72% 30.28 in 10.0 mi NNW 5.8 mph - 0.00 in   Clear
3:50 AM 1.4 °F -9.9 °F -5.8 °F 72% 30.29 in 10.0 mi NW 5.8 mph - 0.00 in   Clear
4:10 AM -0.4 °F - -5.8 °F 78% 30.29 in 10.0 mi Calm Calm - 0.00 in   Clear
4:30 AM -0.4 °F - -5.8 °F 78% 30.29 in 10.0 mi Calm Calm - 0.00 in   Clear
4:50 AM -0.4 °F - -5.8 °F 78% 30.29 in 10.0 mi Calm Calm - 0.00 in   Clear
5:15 AM -0.4 °F - -5.8 °F 78% 30.30 in 10.0 mi Calm Calm - 0.00 in   Clear
5:30 AM -0.4 °F - -5.8 °F 78% 30.31 in 10.0 mi Calm Calm - 0.00 in   Clear
5:50 AM -0.4 °F - -5.8 °F 78% 30.31 in 10.0 mi Calm Calm - 0.00 in   Clear
6:15 AM -2.2 °F -10.4 °F -7.6 °F 78% 30.32 in 10.0 mi West 3.5 mph - 0.00 in   Clear
6:30 AM -4.0 °F -14.6 °F -7.6 °F 85% 30.32 in 10.0 mi WNW 4.6 mph - 0.00 in   Clear
6:50 AM -4.0 °F -12.4 °F -7.6 °F 85% 30.34 in 10.0 mi WNW 3.5 mph - 0.00 in   Clear
7:10 AM -4.0 °F - -7.6 °F 85% 30.35 in 10.0 mi Calm Calm - 0.00 in   Clear
7:30 AM -4.0 °F - -7.6 °F 85% 30.36 in 10.0 mi Calm Calm - 0.00 in   Clear
7:50 AM -4.0 °F - -7.6 °F 85% 30.37 in 10.0 mi Calm Calm - 0.00 in   Clear
8:10 AM -5.8 °F - -9.4 °F 84% 30.37 in 10.0 mi Calm Calm - 0.00 in   Clear
8:30 AM -5.8 °F - -9.4 °F 84% 30.37 in 10.0 mi Calm Calm - 0.00 in   Clear
8:50 AM -4.0 °F - -7.6 °F 85% 30.37 in 10.0 mi Calm Calm - 0.00 in   Clear
9:15 AM -4.0 °F - -7.6 °F 85% 30.39 in 10.0 mi Calm Calm - 0.00 in   Clear
9:30 AM -2.2 °F - -5.8 °F 85% 30.39 in 10.0 mi Calm Calm - 0.00 in   Clear
9:50 AM -0.4 °F - -5.8 °F 78% 30.40 in 10.0 mi Calm Calm - 0.00 in   Clear
10:15 AM 1.4 °F -6.2 °F -5.8 °F 72% 30.41 in 10.0 mi SSW 3.5 mph - 0.00 in   Clear
10:30 AM 1.4 °F - -4.0 °F 78% 30.41 in 10.0 mi Calm Calm - 0.00 in   Clear
10:50 AM 3.2 °F - -4.0 °F 72% 30.41 in 10.0 mi Calm Calm - 0.00 in   Clear
11:15 AM 3.2 °F -4.2 °F -4.0 °F 72% 30.41 in 10.0 mi West 3.5 mph - 0.00 in   Clear
11:30 AM 3.2 °F - -4.0 °F 72% 30.40 in 10.0 mi Calm Calm - 0.00 in   Clear
11:50 AM 5.0 °F -2.1 °F -4.0 °F 66% 30.39 in 10.0 mi WSW 3.5 mph - 0.00 in   Clear
12:10 PM 5.0 °F -4.1 °F -2.2 °F 72% 30.39 in 10.0 mi SW 4.6 mph - 0.00 in   Clear
12:30 PM 6.8 °F -0.1 °F -2.2 °F 67% 30.38 in 10.0 mi SW 3.5 mph - 0.00 in   Clear
12:50 PM 8.6 °F 2.0 °F -2.2 °F 62% 30.36 in 10.0 mi SW 3.5 mph - 0.00 in   Clear
1:10 PM 8.6 °F -2.6 °F -2.2 °F 62% 30.37 in 10.0 mi SW 6.9 mph - 0.00 in   Clear
1:30 PM 8.6 °F -2.6 °F -0.4 °F 67% 30.36 in 10.0 mi SSW 6.9 mph - 0.00 in   Clear
1:50 PM 10.4 °F -0.4 °F -0.4 °F 62% 30.36 in 10.0 mi SSW 6.9 mph - 0.00 in   Clear
2:15 PM 10.4 °F 0.8 °F -0.4 °F 62% 30.36 in 10.0 mi SSW 5.8 mph - 0.00 in   Clear
2:30 PM 10.4 °F -1.5 °F -0.4 °F 62% 30.35 in 10.0 mi SW 8.1 mph - 0.00 in   Clear
2:50 PM 10.4 °F -1.5 °F -2.2 °F 57% 30.35 in 10.0 mi SW 8.1 mph - 0.00 in   Clear
3:10 PM 10.4 °F -0.4 °F -4.0 °F 52% 30.35 in 10.0 mi SW 6.9 mph - 0.00 in   Clear
3:30 PM 10.4 °F -0.4 °F -2.2 °F 57% 30.35 in 10.0 mi SSW 6.9 mph - 0.00 in   Clear
3:50 PM 12.2 °F 1.7 °F -0.4 °F 57% 30.36 in 10.0 mi South 6.9 mph - 0.00 in   Clear
4:10 PM 10.4 °F -0.4 °F -0.4 °F 62% 30.36 in 10.0 mi South 6.9 mph - 0.00 in   Clear
4:30 PM 10.4 °F -1.5 °F -2.2 °F 57% 30.34 in 10.0 mi South 8.1 mph - 0.00 in   Clear
4:50 PM 10.4 °F -0.4 °F -2.2 °F 57% 30.33 in 10.0 mi SSE 6.9 mph - 0.00 in   Clear
5:10 PM 10.4 °F -1.5 °F -2.2 °F 57% 30.33 in 10.0 mi SSE 8.1 mph - 0.00 in   Clear
5:30 PM 10.4 °F -0.4 °F -2.2 °F 57% 30.32 in 10.0 mi SSE 6.9 mph - 0.00 in   Clear
5:50 PM 10.4 °F -0.4 °F -0.4 °F 62% 30.32 in 10.0 mi SSE 6.9 mph - 0.00 in   Partly Cloudy
6:10 PM 10.4 °F -2.4 °F -0.4 °F 62% 30.31 in 10.0 mi SSE 9.2 mph - 0.00 in   Clear
6:30 PM 10.4 °F -5.4 °F 1.4 °F 67% 30.30 in 10.0 mi SSE 13.8 mph - 0.00 in   Clear
6:50 PM 10.4 °F -5.4 °F 1.4 °F 67% 30.30 in 10.0 mi SSE 13.8 mph - 0.00 in   Clear
7:10 PM 10.4 °F -4.8 °F 1.4 °F 67% 30.29 in 10.0 mi SSE 12.7 mph - 0.00 in   Partly Cloudy
7:30 PM 10.4 °F -4.1 °F 1.4 °F 67% 30.28 in 10.0 mi SSE 11.5 mph - 0.00 in   Partly Cloudy
7:50 PM 10.4 °F -4.8 °F 1.4 °F 67% 30.26 in 10.0 mi South 12.7 mph - 0.00 in   Partly Cloudy
8:10 PM 12.2 °F -0.2 °F 3.2 °F 67% 30.27 in 10.0 mi South 9.2 mph - 0.00 in   Scattered Clouds
8:30 PM 12.2 °F -0.2 °F 3.2 °F 67% 30.27 in 10.0 mi South 9.2 mph - 0.00 in   Scattered Clouds
8:50 PM 10.4 °F -4.8 °F 3.2 °F 73% 30.26 in 10.0 mi South 12.7 mph - 0.00 in   Partly Cloudy
9:10 PM 10.4 °F -4.8 °F 3.2 °F 73% 30.23 in 10.0 mi SSE 12.7 mph - 0.00 in   Clear
9:30 PM 10.4 °F -5.4 °F 3.2 °F 73% 30.22 in 10.0 mi SSE 13.8 mph - 0.00 in   Clear
9:50 PM 10.4 °F -5.4 °F 3.2 °F 73% 30.22 in 10.0 mi South 13.8 mph - 0.00 in   Clear
10:10 PM 10.4 °F -4.8 °F 3.2 °F 73% 30.21 in 10.0 mi SSE 12.7 mph - 0.00 in   Clear
10:30 PM 10.4 °F -4.1 °F 1.4 °F 67% 30.20 in 10.0 mi SSE 11.5 mph - 0.00 in   Clear
10:50 PM 10.4 °F -4.8 °F 3.2 °F 73% 30.20 in 10.0 mi SSE 12.7 mph - 0.00 in   Clear
11:10 PM 10.4 °F -4.8 °F 3.2 °F 73% 30.19 in 10.0 mi SSE 12.7 mph - 0.00 in   Clear
11:30 PM 10.4 °F -5.4 °F 3.2 °F 73% 30.18 in 10.0 mi SSE 13.8 mph - 0.00 in   Clear
11:50 PM 10.4 °F -5.4 °F 3.2 °F 73% 30.17 in 10.0 mi SSE 13.8 mph - 0.00 in   Clear